Home   Weather   Sherbrooke   Past weeks
Flag for Canada

Past Weather in Sherbrooke, Quebec, Canada — Yesterday and Last 2 Weeks

Now
23 °F

Passing clouds.


Feels Like: 8 °F
Forecast: 25 / 11 °F
Wind: 21 mph from West

Location: Sherbrooke

Current Time: Mar 18, 2019 at 12:41:26 pm

Latest Report: Mar 18, 2019 at 12:00 pm


Visibility: 9 mi

Pressure: 30.20 "Hg

Humidity: 39%

Dew Point: 1 °F

Location of SherbrookeLocation

Past Weather in Sherbrooke — Graph

°F

Sherbrooke Temperature Yesterday

Maximum temperature yesterday: 23 °F (at 12:01 am)
Minimum temperature yesterday: 14 °F (at 8:00 am)
Average temperature yesterday: 19 °F

High & Low Weather Summary for the Past Weeks

 TemperatureHumidityPressure
High50 °F (Mar 14, 4:00 pm)100% (Mar 4, 12:58 am)30.45 "Hg (Mar 4, 12:58 am)
Low-17 °F (Mar 7, 7:00 am)20% (Mar 9, 1:00 pm)29.59 "Hg (Mar 16, 4:16 am)
Average23 °F74%29.97 "Hg
* Reported Mar 3 10:09 am — Mar 18 11:00 am, Sherbrooke. Weather by CustomWeather, © 2019

Note: Actual official high and low records may vary slightly from our data, if they occured in-between our weather recording intervals... More about our weather records

Advertising

Sherbrooke Weather History for the Previous 24 Hours

Scroll right to see more
 ConditionsComfort  
Time TempWeatherWind HumidityBarometerVisibility
11:00 am
Mon, Mar 18
21 °FPassing clouds.18 mph42%30.20 "Hg9 mi
10:00 am19 °FPassing clouds.15 mph49%30.20 "Hg9 mi
9:00 am18 °FPassing clouds.7 mph62%30.19 "Hg9 mi
8:00 am14 °FPassing clouds.7 mph67%30.18 "Hg9 mi
7:00 am10 °FPassing clouds.7 mph72%30.16 "Hg9 mi
6:00 am10 °FClear.7 mph72%30.15 "Hg9 mi
5:00 am12 °FPassing clouds.6 mph67%30.14 "Hg9 mi
4:00 am14 °FPassing clouds.6 mph62%30.13 "Hg9 mi
3:00 am14 °FPassing clouds.6 mph67%30.13 "Hg9 mi
2:00 am14 °FClear.7 mph73%30.13 "Hg9 mi
1:00 am16 °FPassing clouds.6 mph67%30.12 "Hg9 mi
12:00 am18 °FPassing clouds.6 mph62%30.11 "Hg9 mi
11:00 pm
Sun, Mar 17
18 °FOvercast.7 mph62%30.11 "Hg9 mi
10:00 pm18 °FPassing clouds.7 mph62%30.11 "Hg9 mi
9:00 pm19 °FOvercast.9 mph58%30.11 "Hg9 mi
8:00 pm19 °FPassing clouds.8 mph58%30.11 "Hg9 mi
7:00 pm19 °FPassing clouds.10 mph53%30.10 "Hg9 mi
6:00 pm21 °FOvercast.16 mph54%30.09 "Hg9 mi
5:37 pm21 °FOvercast.14 mph54%30.09 "Hg9 mi
5:00 pm21 °FOvercast.17 mph54%30.09 "Hg9 mi
4:44 pm21 °FLight snow. Overcast.16 mph58%30.09 "Hg9 mi
4:34 pm21 °FOvercast.22 mph58%30.08 "Hg9 mi
4:09 pm21 °FLight snow. Overcast.17 mph58%30.08 "Hg9 mi
3:00 pm21 °FOvercast.17 mph54%30.08 "Hg9 mi
2:32 pm21 °FOvercast.23 mph54%30.08 "Hg9 mi
2:17 pm19 °FLight snow. Overcast.21 mph63%30.08 "Hg8 mi
1:00 pm21 °FOvercast.17 mph54%30.08 "Hg9 mi
12:00 pm19 °FScattered clouds.16 mph53%30.08 "Hg9 mi
Weather by CustomWeather, © 2019

See weather overview